,,,PA_Meas_PMT16A,,PR_Meas_QMR101_102,,RH_Meas_QMH101,,SR_Meas_QMS101,,TA_Meas_QMH101,,GenWind,,GenWind,
date,time,status,PA,status,PR,status,RH,status,SR,status,TA,status,DirAvg,status,SpdAvg,
2010-08-08, 00:00:04,VALID,999.851,VALID,0,VALID,79.7219,VALID,0,VALID,24.8313,VALID,208,VALID,2.31445,
2010-08-08, 00:01:04,VALID,999.873,VALID,0,VALID,79.9126,VALID,0,VALID,24.9112,VALID,195,VALID,1.96758,
2010-08-08, 00:02:04,VALID,999.857,VALID,0,VALID,79.4167,VALID,0,VALID,24.9308,VALID,198,VALID,1.86484,
2010-08-08, 00:03:04,VALID,999.835,VALID,0,VALID,79.226,VALID,0,VALID,24.9503,VALID,204,VALID,2.075,
2010-08-08, 00:04:04,VALID,999.838,VALID,0,VALID,79.493,VALID,0,VALID,24.9308,VALID,197,VALID,1.38594,
2010-08-08, 00:05:04,VALID,999.817,VALID,0,VALID,79.8592,VALID,0,VALID,24.9308,VALID,178,VALID,1.64727,
2010-08-08, 00:06:04,VALID,999.817,VALID,0,VALID,80.2255,VALID,0,VALID,24.8917,VALID,175,VALID,1.39648,
2010-08-08, 00:07:04,VALID,999.807,VALID,0,VALID,79.8058,VALID,0,VALID,24.8722,VALID,180,VALID,2.31523,
2010-08-08, 00:08:04,VALID,999.821,VALID,0,VALID,80.4086,VALID,0,VALID,24.8508,VALID,183,VALID,2.18398,
2010-08-08, 00:09:04,VALID,999.822,VALID,0,VALID,79.905,VALID,0,VALID,24.8722,VALID,177,VALID,2.82188,
2010-08-08, 00:10:04,VALID,999.8,VALID,0,VALID,80.4391,VALID,0,VALID,24.8313,VALID,183,VALID,2.34063,
2010-08-08, 00:11:04,VALID,999.787,VALID,0,VALID,79.76,VALID,0,VALID,24.8527,VALID,171,VALID,2.13164,
2010-08-08, 00:12:04,VALID,999.793,VALID,0,VALID,80.6375,VALID,0,VALID,24.8136,VALID,179,VALID,2.59258,
2010-08-08, 00:13:04,VALID,999.778,VALID,0,VALID,79.8592,VALID,0,VALID,24.7941,VALID,178,VALID,2.56953,
2010-08-08, 00:14:04,VALID,999.778,VALID,0,VALID,79.7753,VALID,0,VALID,24.7922,VALID,182,VALID,1.87461,
2010-08-08, 00:15:04,VALID,999.743,VALID,0,VALID,79.1726,VALID,0,VALID,24.8117,VALID,179,VALID,3.06172,
2010-08-08, 00:16:04,VALID,999.771,VALID,0,VALID,79.1115,VALID,0,VALID,24.8527,VALID,170,VALID,2.69688,
2010-08-08, 00:17:04,VALID,999.772,VALID,0,VALID,79.0963,VALID,0,VALID,24.8332,VALID,175,VALID,2.46563,
2010-08-08, 00:18:04,VALID,999.774,VALID,0,VALID,80.1797,VALID,0,VALID,24.8117,VALID,166,VALID,1.9457,
2010-08-08, 00:19:04,VALID,999.729,VALID,0,VALID,80.317,VALID,0,VALID,24.7532,VALID,172,VALID,2.10938,
2010-08-08, 00:20:04,VALID,999.723,VALID,0,VALID,79.9126,VALID,0,VALID,24.7551,VALID,158,VALID,2.28594,
2010-08-08, 00:21:04,VALID,999.702,VALID,0,VALID,80.4009,VALID,0,VALID,24.716,VALID,158,VALID,2.81172,
2010-08-08, 00:22:04,VALID,999.71,VALID,0,VALID,80.4086,VALID,0,VALID,24.7356,VALID,170,VALID,2.57656,
2010-08-08, 00:23:04,VALID,999.684,VALID,0,VALID,80.5459,VALID,0,VALID,24.7142,VALID,176,VALID,2.26836,
2010-08-08, 00:24:04,VALID,999.661,VALID,0,VALID,80.4772,VALID,0,VALID,24.7356,VALID,171,VALID,2.43477,
2010-08-08, 00:25:04,VALID,999.66,VALID,0,VALID,81.1792,VALID,0,VALID,24.7142,VALID,164,VALID,1.93516,
2010-08-08, 00:26:04,VALID,999.649,VALID,0,VALID,80.874,VALID,0,VALID,24.6751,VALID,168,VALID,2.24531,
2010-08-08, 00:27:04,VALID,999.657,VALID,0,VALID,81.4309,VALID,0,VALID,24.6361,VALID,164,VALID,1.9375,
2010-08-08, 00:28:04,VALID,999.676,VALID,0,VALID,81.759,VALID,0,VALID,24.6184,VALID,160,VALID,1.66875,
2010-08-08, 00:29:04,VALID,999.615,VALID,0,VALID,81.4004,VALID,0,VALID,24.5775,VALID,175,VALID,2.04766,
2010-08-08, 00:30:04,VALID,999.632,VALID,0,VALID,81.4996,VALID,0,VALID,24.5989,VALID,173,VALID,2.18516,
2010-08-08, 00:31:04,VALID,999.619,VALID,0,VALID,81.8429,VALID,0,VALID,24.5989,VALID,168,VALID,1.53984,
2010-08-08, 00:32:04,VALID,999.597,VALID,0,VALID,81.7361,VALID,0,VALID,24.5794,VALID,170,VALID,1.8668,
2010-08-08, 00:33:04,VALID,999.581,VALID,0,VALID,82.1939,VALID,0,VALID,24.5794,VALID,167,VALID,1.64922,
2010-08-08, 00:34:04,VALID,999.567,VALID,0,VALID,82.2092,VALID,0,VALID,24.5599,VALID,179,VALID,1.75937,
2010-08-08, 00:35:04,VALID,999.543,VALID,0,VALID,81.5378,VALID,0,VALID,24.5404,VALID,172,VALID,2.05547,
2010-08-08, 00:36:04,VALID,999.518,VALID,0,VALID,81.759,VALID,0,VALID,24.5794,VALID,177,VALID,1.90547,
2010-08-08, 00:37:04,VALID,999.521,VALID,0,VALID,81.6674,VALID,0,VALID,24.5775,VALID,173,VALID,1.64375,
2010-08-08, 00:38:04,VALID,999.524,VALID,0,VALID,81.3241,VALID,0,VALID,24.5775,VALID,156,VALID,1.9418,
2010-08-08, 00:39:04,VALID,999.5,VALID,0,VALID,81.4996,VALID,0,VALID,24.558,VALID,159,VALID,1.63555,
2010-08-08, 00:40:04,VALID,999.495,VALID,0,VALID,81.0647,VALID,0,VALID,24.5385,VALID,146,VALID,1.93398,
2010-08-08, 00:41:04,VALID,999.463,VALID,0,VALID,81.0723,VALID,0,VALID,24.5385,VALID,135,VALID,1.77578,
2010-08-08, 00:42:04,VALID,999.439,VALID,0,VALID,81.9116,VALID,0,VALID,24.519,VALID,144,VALID,1.01836,
2010-08-08, 00:43:04,VALID,999.44,VALID,0,VALID,81.9345,VALID,0,VALID,24.5013,VALID,145,VALID,1.48281,
2010-08-08, 00:44:04,VALID,999.391,VALID,0,VALID,82.2015,VALID,0,VALID,24.4623,VALID,138,VALID,1.22305,
2010-08-08, 00:45:04,VALID,999.384,VALID,0,VALID,82.0947,VALID,0,VALID,24.4623,VALID,131,VALID,1.18477,
2010-08-08, 00:46:04,VALID,999.37,VALID,0,VALID,81.7819,VALID,0,VALID,24.4233,VALID,147,VALID,1.24844,
2010-08-08, 00:47:04,VALID,999.391,VALID,0,VALID,81.6751,VALID,0,VALID,24.4428,VALID,144,VALID,1.32617,
2010-08-08, 00:48:04,VALID,999.408,VALID,0,VALID,82.0642,VALID,0,VALID,24.4604,VALID,169,VALID,1.08164,
2010-08-08, 00:49:04,VALID,999.386,VALID,0,VALID,82.2549,VALID,0,VALID,24.4409,VALID,160,VALID,1.34648,
2010-08-08, 00:50:04,VALID,999.359,VALID,0,VALID,82.2397,VALID,0,VALID,24.4409,VALID,162,VALID,1.25469,
2010-08-08, 00:51:04,VALID,999.359,VALID,0,VALID,82.0642,VALID,0,VALID,24.4623,VALID,150,VALID,1.12656,
2010-08-08, 00:52:04,VALID,999.344,VALID,0,VALID,81.8277,VALID,0,VALID,24.4623,VALID,175,VALID,0.835156,
2010-08-08, 00:53:04,VALID,999.349,VALID,0,VALID,82.0642,VALID,0,VALID,24.4623,VALID,142,VALID,0.963672,
2010-08-08, 00:54:04,VALID,999.313,VALID,0,VALID,82.316,VALID,0,VALID,24.4428,VALID,164,VALID,1.09492,
2010-08-08, 00:55:04,VALID,999.29,VALID,0,VALID,82.1557,VALID,0,VALID,24.4428,VALID,182,VALID,1.25937,
2010-08-08, 00:56:04,VALID,999.297,VALID,0,VALID,82.2092,VALID,0,VALID,24.4233,VALID,178,VALID,1.52734,
2010-08-08, 00:57:04,VALID,999.279,VALID,0,VALID,82.3083,VALID,0,VALID,24.4428,VALID,173,VALID,1.40508,
2010-08-08, 00:58:04,VALID,999.228,VALID,0,VALID,82.1252,VALID,0,VALID,24.4623,VALID,182,VALID,1.46289,
2010-08-08, 00:59:04,VALID,999.211,VALID,0,VALID,82.4533,VALID,0,VALID,24.4604,VALID,182,VALID,1.51523,
2010-08-08, 01:00:04,VALID,999.213,VALID,0,VALID,82.1023,VALID,0,VALID,24.4818,VALID,184,VALID,1.65664,
2010-08-08, 01:01:04,VALID,999.171,VALID,0,VALID,81.5149,VALID,0,VALID,24.48,VALID,190,VALID,1.69453,
2010-08-08, 01:02:04,VALID,999.154,VALID,0,VALID,81.5912,VALID,0,VALID,24.5209,VALID,163,VALID,1.26797,
2010-08-08, 01:03:04,VALID,999.183,VALID,0,VALID,81.9803,VALID,0,VALID,24.4995,VALID,172,VALID,1.26953,
2010-08-08, 01:04:04,VALID,999.153,VALID,0,VALID,82.0413,VALID,0,VALID,24.5013,VALID,178,VALID,1.70625,
2010-08-08, 01:05:04,VALID,999.155,VALID,0,VALID,82.0642,VALID,0,VALID,24.48,VALID,178,VALID,1.65977,
2010-08-08, 01:06:04,VALID,999.18,VALID,0,VALID,81.7361,VALID,0,VALID,24.4623,VALID,184,VALID,1.89453,
2010-08-08, 01:07:04,VALID,999.189,VALID,0,VALID,81.6827,VALID,0,VALID,24.48,VALID,171,VALID,1.95938,
2010-08-08, 01:08:04,VALID,999.193,VALID,0,VALID,82.3617,VALID,0,VALID,24.5032,VALID,156,VALID,1.45352,
2010-08-08, 01:09:04,VALID,999.196,VALID,0,VALID,82.3999,VALID,0,VALID,24.4428,VALID,150,VALID,1.56367,
2010-08-08, 01:10:04,VALID,999.209,VALID,0,VALID,82.7051,VALID,0,VALID,24.3647,VALID,145,VALID,1.32695,
2010-08-08, 01:11:04,VALID,999.153,VALID,0,VALID,82.6898,VALID,0,VALID,24.3275,VALID,145,VALID,1.21797,
2010-08-08, 01:12:04,VALID,999.154,VALID,0,VALID,83.0484,VALID,0,VALID,24.2671,VALID,155,VALID,1.10469,
2010-08-08, 01:13:04,VALID,999.085,VALID,0,VALID,83.5825,VALID,0,VALID,24.2476,VALID,168,VALID,0.93125,
2010-08-08, 01:14:04,VALID,999.063,VALID,0,VALID,83.7961,VALID,0,VALID,24.2086,VALID,178,VALID,0.994531,
2010-08-08, 01:15:04,VALID,999.025,VALID,0,VALID,84.1852,VALID,0,VALID,24.1891,VALID,178,VALID,0.383984,
2010-08-08, 01:16:04,VALID,999.004,VALID,0,VALID,84.5743,VALID,0,VALID,24.15,VALID,178,VALID,0.258984,
2010-08-08, 01:17:04,VALID,999,VALID,0,VALID,84.231,VALID,0,VALID,24.1305,VALID,178,VALID,0.541406,
2010-08-08, 01:18:04,VALID,998.943,VALID,0,VALID,84.0708,VALID,0,VALID,24.1305,VALID,194,VALID,0.897656,
2010-08-08, 01:19:04,VALID,998.942,VALID,0,VALID,83.5367,VALID,0,VALID,24.15,VALID,214,VALID,0.837891,
2010-08-08, 01:20:04,VALID,998.92,VALID,0,VALID,83.4299,VALID,0,VALID,24.1891,VALID,195,VALID,0.989062,
2010-08-08, 01:21:04,VALID,998.916,VALID,0,VALID,82.7509,VALID,0,VALID,24.2281,VALID,185,VALID,0.973047,
2010-08-08, 01:22:04,VALID,998.894,VALID,0,VALID,83.1705,VALID,0,VALID,24.2671,VALID,184,VALID,0.831641,
2010-08-08, 01:23:04,VALID,998.915,VALID,0,VALID,83.3383,VALID,0,VALID,24.2671,VALID,183,VALID,0.875,
2010-08-08, 01:24:04,VALID,998.918,VALID,0,VALID,83.9563,VALID,0,VALID,24.2458,VALID,177,VALID,1.01133,
2010-08-08, 01:25:04,VALID,998.949,VALID,0,VALID,83.9334,VALID,0,VALID,24.2476,VALID,165,VALID,1.12188,
2010-08-08, 01:26:04,VALID,998.95,VALID,0,VALID,84.1242,VALID,0,VALID,24.2281,VALID,164,VALID,1.06797,
2010-08-08, 01:27:04,VALID,998.984,VALID,0,VALID,84.0708,VALID,0,VALID,24.1891,VALID,162,VALID,1.03672,
2010-08-08, 01:28:04,VALID,998.99,VALID,0,VALID,84.17,VALID,0,VALID,24.1092,VALID,160,VALID,1.19258,
2010-08-08, 01:29:04,VALID,999.011,VALID,0,VALID,84.7117,VALID,0,VALID,24.111,VALID,153,VALID,0.897656,
2010-08-08, 01:30:04,VALID,999.014,VALID,0,VALID,84.8566,VALID,0,VALID,24.0525,VALID,145,VALID,1.12188,
2010-08-08, 01:31:04,VALID,998.988,VALID,0,VALID,85.0245,VALID,0,VALID,24.0134,VALID,140,VALID,0.990234,
2010-08-08, 01:32:04,VALID,999.014,VALID,0,VALID,85.1008,VALID,0,VALID,23.9549,VALID,141,VALID,0.869141,
2010-08-08, 01:33:04,VALID,999.003,VALID,0,VALID,85.1694,VALID,0,VALID,23.9354,VALID,138,VALID,0.703516,
2010-08-08, 01:34:04,VALID,998.934,VALID,0,VALID,85.4365,VALID,0,VALID,23.8945,VALID,131,VALID,0.560938,
2010-08-08, 01:35:04,VALID,998.974,VALID,0,VALID,86.3063,VALID,0,VALID,23.8786,VALID,88,VALID,0.658594,
2010-08-08, 01:36:04,VALID,998.943,VALID,0,VALID,87.1837,VALID,0,VALID,23.8378,VALID,72,VALID,0.655078,
2010-08-08, 01:37:04,VALID,998.909,VALID,0,VALID,87.7101,VALID,0,VALID,23.7402,VALID,71,VALID,0.625781,
2010-08-08, 01:38:04,VALID,998.914,VALID,0,VALID,88.1374,VALID,0,VALID,23.6427,VALID,71,VALID,0.623047,
2010-08-08, 01:39:04,VALID,998.869,VALID,0,VALID,88.5723,VALID,0,VALID,23.5841,VALID,70,VALID,0.616016,
2010-08-08, 01:40:04,VALID,998.856,VALID,0,VALID,88.9766,VALID,0,VALID,23.5061,VALID,57,VALID,0.664063,
2010-08-08, 01:41:04,VALID,998.836,VALID,0,VALID,89.4726,VALID,0,VALID,23.4475,VALID,35,VALID,0.772656,
2010-08-08, 01:42:04,VALID,998.862,VALID,0,VALID,89.8388,VALID,0,VALID,23.3482,VALID,20,VALID,0.810547,
2010-08-08, 01:43:04,VALID,998.852,VALID,0,VALID,90.0753,VALID,0,VALID,23.3305,VALID,16,VALID,0.632422,
2010-08-08, 01:44:04,VALID,998.826,VALID,0,VALID,90.3118,VALID,0,VALID,23.2702,VALID,16,VALID,0.455469,
2010-08-08, 01:45:04,VALID,998.871,VALID,0,VALID,90.4568,VALID,0,VALID,23.2329,VALID,16,VALID,0.232031,
2010-08-08, 01:46:04,VALID,998.877,VALID,0,VALID,90.5636,VALID,0,VALID,23.2134,VALID,16,VALID,0.282422,
2010-08-08, 01:47:04,VALID,998.877,VALID,0,VALID,90.7314,VALID,0,VALID,23.1744,VALID,16,VALID,0.378125,
2010-08-08, 01:48:04,VALID,998.875,VALID,0,VALID,90.8917,VALID,0,VALID,23.1549,VALID,16,VALID,0.158594,
2010-08-08, 01:49:04,VALID,998.865,VALID,0,VALID,90.9146,VALID,0,VALID,23.1354,VALID,16,VALID,0,
2010-08-08, 01:50:04,VALID,998.834,VALID,0,VALID,90.9222,VALID,0,VALID,23.1159,VALID,16,VALID,0,
2010-08-08, 01:51:04,VALID,998.845,VALID,0,VALID,90.9527,VALID,0,VALID,23.0769,VALID,16,VALID,0,
2010-08-08, 01:52:04,VALID,998.819,VALID,0,VALID,90.9909,VALID,0,VALID,23.0769,VALID,16,VALID,0,
2010-08-08, 01:53:04,VALID,998.766,VALID,0,VALID,91.1282,VALID,0,VALID,23.0769,VALID,16,VALID,0.0582031,
2010-08-08, 01:54:04,VALID,998.769,VALID,0,VALID,91.2579,VALID,0,VALID,23.0556,VALID,16,VALID,0.275391,
2010-08-08, 01:55:04,VALID,998.739,VALID,0,VALID,91.2884,VALID,0,VALID,23.0769,VALID,16,VALID,0.314453,
2010-08-08, 01:56:04,VALID,998.74,VALID,0,VALID,91.2655,VALID,0,VALID,23.0769,VALID,16,VALID,0.362109,
2010-08-08, 01:57:04,VALID,998.717,VALID,0,VALID,91.235,VALID,0,VALID,23.0769,VALID,16,VALID,0.299609,
2010-08-08, 01:58:04,VALID,998.697,VALID,0,VALID,91.1816,VALID,0,VALID,23.1159,VALID,16,VALID,0.154297,
2010-08-08, 01:59:04,VALID,998.686,VALID,0,VALID,91.0824,VALID,0,VALID,23.0946,VALID,16,VALID,0.0710938,
2010-08-08, 02:00:04,VALID,998.717,VALID,0,VALID,90.9832,VALID,0,VALID,23.1159,VALID,16,VALID,0.126563,
2010-08-08, 02:01:04,VALID,998.694,VALID,0,VALID,90.8611,VALID,0,VALID,23.1354,VALID,16,VALID,0.135156,
2010-08-08, 02:02:04,VALID,998.661,VALID,0,VALID,90.7085,VALID,0,VALID,23.1549,VALID,16,VALID,0.0488281,
2010-08-08, 02:03:04,VALID,998.617,VALID,0,VALID,90.5407,VALID,0,VALID,23.1531,VALID,16,VALID,0,
2010-08-08, 02:04:04,VALID,998.636,VALID,0,VALID,90.4339,VALID,0,VALID,23.1939,VALID,16,VALID,0.0699219,
2010-08-08, 02:05:04,VALID,998.565,VALID,0,VALID,90.5788,VALID,0,VALID,23.1939,VALID,16,VALID,0.0183594,
2010-08-08, 02:06:04,VALID,998.526,VALID,0,VALID,90.7391,VALID,0,VALID,23.1939,VALID,16,VALID,0.289844,
2010-08-08, 02:07:04,VALID,998.517,VALID,0,VALID,90.8077,VALID,0,VALID,23.1336,VALID,16,VALID,0.311719,
2010-08-08, 02:08:04,VALID,998.518,VALID,0,VALID,90.6475,VALID,0,VALID,23.0946,VALID,16,VALID,0.469531,
2010-08-08, 02:09:04,VALID,998.474,VALID,0,VALID,90.556,VALID,0,VALID,23.0769,VALID,16,VALID,0.796484,
2010-08-08, 02:10:04,VALID,998.524,VALID,0,VALID,90.6017,VALID,0,VALID,23.0166,VALID,16,VALID,0.579687,
2010-08-08, 02:11:04,VALID,998.481,VALID,0,VALID,90.8077,VALID,0,VALID,22.9793,VALID,16,VALID,0.344531,
2010-08-08, 02:12:04,VALID,998.472,VALID,0,VALID,90.9909,VALID,0,VALID,22.9403,VALID,16,VALID,0.248437,
2010-08-08, 02:13:04,VALID,998.457,VALID,0,VALID,91.174,VALID,0,VALID,22.88,VALID,16,VALID,0.326172,
2010-08-08, 02:14:04,VALID,998.454,VALID,0,VALID,91.3647,VALID,0,VALID,22.8818,VALID,16,VALID,0.405859,
2010-08-08, 02:15:04,VALID,998.445,VALID,0,VALID,91.5173,VALID,0,VALID,22.8215,VALID,16,VALID,0.492188,
2010-08-08, 02:16:04,VALID,998.456,VALID,0,VALID,91.6928,VALID,0,VALID,22.8215,VALID,16,VALID,0.657031,
2010-08-08, 02:17:04,VALID,998.422,VALID,0,VALID,91.9064,VALID,0,VALID,22.8232,VALID,18,VALID,0.751953,
2010-08-08, 02:18:04,VALID,998.396,VALID,0,VALID,92.0209,VALID,0,VALID,22.7825,VALID,22,VALID,0.761328,
2010-08-08, 02:19:04,VALID,998.433,VALID,0,VALID,92.1429,VALID,0,VALID,22.763,VALID,29,VALID,0.938281,
2010-08-08, 02:20:04,VALID,998.414,VALID,0,VALID,92.1963,VALID,0,VALID,22.7452,VALID,33,VALID,0.739453,
2010-08-08, 02:21:04,VALID,998.4,VALID,0,VALID,92.2192,VALID,0,VALID,22.7045,VALID,40,VALID,0.927344,
2010-08-08, 02:22:04,VALID,998.393,VALID,0,VALID,92.1963,VALID,0,VALID,22.7257,VALID,40,VALID,0.955859,
2010-08-08, 02:23:04,VALID,998.354,VALID,0,VALID,92.1887,VALID,0,VALID,22.6867,VALID,40,VALID,0.875391,
2010-08-08, 02:24:04,VALID,998.371,VALID,0,VALID,92.1811,VALID,0,VALID,22.6867,VALID,39,VALID,0.708594,
2010-08-08, 02:25:04,VALID,998.363,VALID,0,VALID,92.0971,VALID,0,VALID,22.6477,VALID,39,VALID,0.758203,
2010-08-08, 02:26:04,VALID,998.361,VALID,0,VALID,92.0743,VALID,0,VALID,22.6069,VALID,39,VALID,0.676953,
2010-08-08, 02:27:04,VALID,998.402,VALID,0,VALID,92.12,VALID,0,VALID,22.6087,VALID,39,VALID,0.371875,
2010-08-08, 02:28:04,VALID,998.424,VALID,0,VALID,92.1582,VALID,0,VALID,22.5892,VALID,39,VALID,0.309375,
2010-08-08, 02:29:04,VALID,998.399,VALID,0,VALID,92.2116,VALID,0,VALID,22.5892,VALID,39,VALID,0.504687,
2010-08-08, 02:30:04,VALID,998.422,VALID,0,VALID,92.2803,VALID,0,VALID,22.5892,VALID,39,VALID,0.619141,
2010-08-08, 02:31:04,VALID,998.452,VALID,0,VALID,92.3566,VALID,0,VALID,22.5696,VALID,39,VALID,0.702344,
2010-08-08, 02:32:04,VALID,998.438,VALID,0,VALID,92.4252,VALID,0,VALID,22.5696,VALID,39,VALID,0.71875,
2010-08-08, 02:33:04,VALID,998.438,VALID,0,VALID,92.4634,VALID,0,VALID,22.5501,VALID,39,VALID,0.711719,
2010-08-08, 02:34:04,VALID,998.439,VALID,0,VALID,92.4863,VALID,0,VALID,22.5501,VALID,40,VALID,0.758594,
2010-08-08, 02:35:04,VALID,998.458,VALID,0,VALID,92.4328,VALID,0,VALID,22.5306,VALID,51,VALID,0.978516,
2010-08-08, 02:36:04,VALID,998.466,VALID,0,VALID,92.2803,VALID,0,VALID,22.5111,VALID,51,VALID,0.846094,
2010-08-08, 02:37:04,VALID,998.448,VALID,0,VALID,92.059,VALID,0,VALID,22.4899,VALID,51,VALID,0.342578,
2010-08-08, 02:38:04,VALID,998.458,VALID,0,VALID,91.9827,VALID,0,VALID,22.4704,VALID,51,VALID,0.254297,
2010-08-08, 02:39:04,VALID,998.449,VALID,0,VALID,92.0819,VALID,0,VALID,22.4704,VALID,51,VALID,0.314063,
2010-08-08, 02:40:04,VALID,998.434,VALID,0,VALID,92.2345,VALID,0,VALID,22.4916,VALID,51,VALID,0.31875,
2010-08-08, 02:41:04,VALID,998.433,VALID,0,VALID,92.2421,VALID,0,VALID,22.4509,VALID,51,VALID,0.170312,
2010-08-08, 02:42:04,VALID,998.434,VALID,0,VALID,92.2497,VALID,0,VALID,22.4509,VALID,51,VALID,0,
2010-08-08, 02:43:04,VALID,998.435,VALID,0,VALID,92.2116,VALID,0,VALID,22.4509,VALID,51,VALID,0,
2010-08-08, 02:44:04,VALID,998.407,VALID,0,VALID,92.1353,VALID,0,VALID,22.4509,VALID,51,VALID,0,
2010-08-08, 02:45:04,VALID,998.398,VALID,0,VALID,92.1582,VALID,0,VALID,22.4526,VALID,51,VALID,0,
2010-08-08, 02:46:04,VALID,998.376,VALID,0,VALID,92.2345,VALID,0,VALID,22.4721,VALID,51,VALID,0.00234375,
2010-08-08, 02:47:04,VALID,998.363,VALID,0,VALID,92.2497,VALID,0,VALID,22.4314,VALID,51,VALID,0.170703,
2010-08-08, 02:48:04,VALID,998.337,VALID,0,VALID,92.2726,VALID,0,VALID,22.4314,VALID,51,VALID,0.251953,
2010-08-08, 02:49:04,VALID,998.341,VALID,0,VALID,92.2803,VALID,0,VALID,22.4331,VALID,51,VALID,0,
2010-08-08, 02:50:04,VALID,998.334,VALID,0,VALID,92.2803,VALID,0,VALID,22.4331,VALID,51,VALID,0,
2010-08-08, 02:51:04,VALID,998.322,VALID,0,VALID,92.2955,VALID,0,VALID,22.4331,VALID,51,VALID,0,
2010-08-08, 02:52:04,VALID,998.31,VALID,0,VALID,92.3108,VALID,0,VALID,22.4119,VALID,51,VALID,0,
2010-08-08, 02:53:04,VALID,998.319,VALID,0,VALID,92.2879,VALID,0,VALID,22.3924,VALID,51,VALID,0,
2010-08-08, 02:54:04,VALID,998.336,VALID,0,VALID,92.2497,VALID,0,VALID,22.4136,VALID,51,VALID,0,
2010-08-08, 02:55:04,VALID,998.323,VALID,0,VALID,92.1658,VALID,0,VALID,22.3941,VALID,51,VALID,0,
2010-08-08, 02:56:04,VALID,998.314,VALID,0,VALID,92.2192,VALID,0,VALID,22.3941,VALID,51,VALID,0,
2010-08-08, 02:57:04,VALID,998.337,VALID,0,VALID,92.3413,VALID,0,VALID,22.3534,VALID,51,VALID,0,
2010-08-08, 02:58:04,VALID,998.347,VALID,0,VALID,92.3947,VALID,0,VALID,22.3746,VALID,51,VALID,0,
2010-08-08, 02:59:04,VALID,998.291,VALID,0,VALID,92.4405,VALID,0,VALID,22.3534,VALID,51,VALID,0,
2010-08-08, 03:00:04,VALID,998.29,VALID,0,VALID,92.4634,VALID,0,VALID,22.3534,VALID,51,VALID,0,
2010-08-08, 03:01:04,VALID,998.263,VALID,0,VALID,92.4863,VALID,0,VALID,22.3746,VALID,51,VALID,0,
2010-08-08, 03:02:04,VALID,998.26,VALID,0,VALID,92.4863,VALID,0,VALID,22.3746,VALID,51,VALID,0,
2010-08-08, 03:03:04,VALID,998.259,VALID,0,VALID,92.4481,VALID,0,VALID,22.3941,VALID,51,VALID,0,
2010-08-08, 03:04:04,VALID,998.281,VALID,0,VALID,92.3642,VALID,0,VALID,22.3941,VALID,51,VALID,0,
2010-08-08, 03:05:04,VALID,998.24,VALID,0,VALID,92.3489,VALID,0,VALID,22.3729,VALID,51,VALID,0,
2010-08-08, 03:06:04,VALID,998.261,VALID,0,VALID,92.2879,VALID,0,VALID,22.3729,VALID,51,VALID,0,
2010-08-08, 03:07:04,VALID,998.274,VALID,0,VALID,92.2726,VALID,0,VALID,22.3746,VALID,51,VALID,0,
2010-08-08, 03:08:04,VALID,998.29,VALID,0,VALID,92.2726,VALID,0,VALID,22.3534,VALID,51,VALID,0,
2010-08-08, 03:09:04,VALID,998.304,VALID,0,VALID,92.3031,VALID,0,VALID,22.3551,VALID,51,VALID,0,
2010-08-08, 03:10:04,VALID,998.323,VALID,0,VALID,92.3642,VALID,0,VALID,22.3551,VALID,51,VALID,0,
2010-08-08, 03:11:04,VALID,998.319,VALID,0,VALID,92.3871,VALID,0,VALID,22.3534,VALID,51,VALID,0,
2010-08-08, 03:12:04,VALID,998.304,VALID,0,VALID,92.41,VALID,0,VALID,22.3746,VALID,51,VALID,0,
2010-08-08, 03:13:04,VALID,998.33,VALID,0,VALID,92.471,VALID,0,VALID,22.3551,VALID,51,VALID,0,
2010-08-08, 03:14:04,VALID,998.359,VALID,0,VALID,92.532,VALID,0,VALID,22.3551,VALID,51,VALID,0,
2010-08-08, 03:15:04,VALID,998.343,VALID,0,VALID,92.5626,VALID,0,VALID,22.3356,VALID,51,VALID,0,
2010-08-08, 03:16:04,VALID,998.393,VALID,0,VALID,92.6236,VALID,0,VALID,22.3356,VALID,51,VALID,0,
2010-08-08, 03:17:04,VALID,998.4,VALID,0,VALID,92.6999,VALID,0,VALID,22.3339,VALID,51,VALID,0,
2010-08-08, 03:18:04,VALID,998.38,VALID,0,VALID,92.7762,VALID,0,VALID,22.3356,VALID,51,VALID,0,
2010-08-08, 03:19:04,VALID,998.382,VALID,0,VALID,92.822,VALID,0,VALID,22.3144,VALID,51,VALID,0,
2010-08-08, 03:20:04,VALID,998.383,VALID,0,VALID,92.9288,VALID,0,VALID,22.3551,VALID,51,VALID,0,
2010-08-08, 03:21:04,VALID,998.359,VALID,0,VALID,93.0127,VALID,0,VALID,22.3746,VALID,51,VALID,0,
2010-08-08, 03:22:04,VALID,998.373,VALID,0,VALID,93.0814,VALID,0,VALID,22.3339,VALID,51,VALID,0,
2010-08-08, 03:23:04,VALID,998.348,VALID,0,VALID,93.0966,VALID,0,VALID,22.3746,VALID,51,VALID,0,
2010-08-08, 03:24:04,VALID,998.314,VALID,0,VALID,93.1348,VALID,0,VALID,22.3729,VALID,52,VALID,0,
2010-08-08, 03:25:04,VALID,998.323,VALID,0,VALID,93.1424,VALID,0,VALID,22.3729,VALID,125,VALID,0.362891,
2010-08-08, 03:26:04,VALID,998.3,VALID,0,VALID,93.1271,VALID,0,VALID,22.4136,VALID,116,VALID,0.592578,
2010-08-08, 03:27:04,VALID,998.28,VALID,0,VALID,92.9364,VALID,0,VALID,22.4314,VALID,118,VALID,1.67852,
2010-08-08, 03:28:04,VALID,998.257,VALID,0,VALID,92.0209,VALID,0,VALID,22.685,VALID,135,VALID,1.56289,
2010-08-08, 03:29:04,VALID,998.3,VALID,0,VALID,89.175,VALID,0,VALID,23.0378,VALID,131,VALID,2.31484,
2010-08-08, 03:30:04,VALID,998.286,VALID,0,VALID,87.0997,VALID,0,VALID,23.3305,VALID,139,VALID,1.76367,
2010-08-08, 03:31:04,VALID,998.245,VALID,0,VALID,86.0087,VALID,0,VALID,23.5256,VALID,127,VALID,1.89141,
2010-08-08, 03:32:04,VALID,998.291,VALID,0,VALID,85.4517,VALID,0,VALID,23.6622,VALID,131,VALID,1.43047,
2010-08-08, 03:33:04,VALID,998.293,VALID,0,VALID,84.8566,VALID,0,VALID,23.7402,VALID,134,VALID,1.92148,
2010-08-08, 03:34:04,VALID,998.29,VALID,0,VALID,84.1776,VALID,0,VALID,23.836,VALID,131,VALID,2.36914,
2010-08-08, 03:35:04,VALID,998.291,VALID,0,VALID,83.7046,VALID,0,VALID,23.9336,VALID,129,VALID,2.16445,
2010-08-08, 03:36:04,VALID,998.287,VALID,0,VALID,83.4375,VALID,0,VALID,24.0116,VALID,131,VALID,2.13281,
2010-08-08, 03:37:04,VALID,998.293,VALID,0,VALID,83.1323,VALID,0,VALID,24.0915,VALID,128,VALID,3.26211,
2010-08-08, 03:38:04,VALID,998.288,VALID,0,VALID,82.7966,VALID,0,VALID,24.1287,VALID,133,VALID,2.19336,
2010-08-08, 03:39:04,VALID,998.287,VALID,0,VALID,82.7127,VALID,0,VALID,24.1677,VALID,132,VALID,2.21523,
2010-08-08, 03:40:04,VALID,998.266,VALID,0,VALID,82.5601,VALID,0,VALID,24.2067,VALID,131,VALID,2.3668,
2010-08-08, 03:41:04,VALID,998.275,VALID,0,VALID,82.438,VALID,0,VALID,24.2458,VALID,123,VALID,2.45586,
2010-08-08, 03:42:04,VALID,998.242,VALID,0,VALID,82.3846,VALID,0,VALID,24.2458,VALID,130,VALID,2.5875,
2010-08-08, 03:43:04,VALID,998.298,VALID,0,VALID,82.3694,VALID,0,VALID,24.3043,VALID,120,VALID,2.33555,
2010-08-08, 03:44:04,VALID,998.276,VALID,0,VALID,82.4228,VALID,0,VALID,24.3043,VALID,127,VALID,2.13789,
2010-08-08, 03:45:04,VALID,998.309,VALID,0,VALID,82.5906,VALID,0,VALID,24.3043,VALID,126,VALID,2.13008,
2010-08-08, 03:46:04,VALID,998.324,VALID,0,VALID,82.4838,VALID,0,VALID,24.3043,VALID,126,VALID,2.71172,
2010-08-08, 03:47:04,VALID,998.314,VALID,0,VALID,82.377,VALID,0,VALID,24.3238,VALID,126,VALID,2.38789,
2010-08-08, 03:48:04,VALID,998.327,VALID,0,VALID,82.4609,VALID,0,VALID,24.3238,VALID,132,VALID,2.26406,
2010-08-08, 03:49:04,VALID,998.331,VALID,0,VALID,82.4228,VALID,0,VALID,24.3238,VALID,141,VALID,2.32461,